Regional Weather Roundup
Issued by NWS

Home | Current Version | Previous Version | Graphics & Text | Print | Product List | Glossary On
Versions: 1 2 3 4 5 6 7 8 9 10 11 12 13 14 15 16 17 18 19 20 21 22 23 24 25 26 27 28 29 30 31 32 33 34 35 36 37 38 39 40 41 42 43 44 45 46 47 48 49 50
000
ASUS43 KLSX 241507
RWRMO

WEATHER SUMMARY FOR MISSOURI
NATIONAL WEATHER SERVICE SPRINGFIELD MO
900 AM CST SAT JAN 24 2015

NOTE: "FAIR" INDICATES FEW OR NO CLOUDS BELOW 12,000 FEET WITH NO
       SIGNIFICANT WEATHER AND/OR OBSTRUCTIONS TO VISIBILITY.
       CURRENT SKY AND/OR WEATHER CONDITIONS ARE NOT AVAILABLE FOR
       CHILLICOTHE AND FARMINGTON.

MOZ001>031-035>038-043-044-053-054-241600-
...NORTHERN AND WESTERN MISSOURI...

CITY           SKY/WX    TMP DP  RH WIND       PRES   REMARKS
KANSAS CTY INT MOSUNNY   33  29  85 SW8       29.95F WCI  26
KANSAS C DTWN  SUNNY     34  27  75 SW8       29.97S WCI  27
LEE`S SUMMIT   SUNNY     33  28  81 SW9       29.96S WCI  25
ST JOSEPH      SUNNY     31  28  89 S7        29.95F WCI  24
CHILLICOTHE      N/A     34  28  79 SW5       29.93S WCI  30
KIRKSVILLE     SUNNY     32  29  88 W12       29.88S WCI  23

$$
MOZ066>068-077>081-088>096-101>105-241600-
...SOUTHWEST MISSOURI...

CITY           SKY/WX    TMP DP  RH WIND       PRES   REMARKS
SPRINGFIELD    SUNNY     34  24  67 W8        29.99R WCI  27
JOPLIN         SUNNY     34  25  69 W8        30.05R WCI  27

$$
MOZ032>034-039>042-045>050-055>058-069>072-241600-
...CENTRAL MISSOURI...

CITY           SKY/WX    TMP DP  RH WIND       PRES   REMARKS
COLUMBIA       SUNNY     34  26  72 W9        29.92S WCI  27
JEFFERSON CITY SUNNY     32  25  75 NW3       29.96S
ROLLA          SUNNY     33  24  69 W9        29.92R WCI  25
SEDALIA        SUNNY     35  27  72 SW7       29.95F WCI  29
WHITEMAN AFB   SUNNY     35  28  75 W7        29.95F WCI  29
WARRENSBURG    SUNNY     34  30  86 SW8       29.96F WCI  27
OSAGE BEACH    SUNNY     34  23  64 W8        29.97R WCI  27

$$
MOZ051-052-059>065-241600-
...EAST CENTRAL MISSOURI...

CITY           SKY/WX    TMP DP  RH WIND       PRES   REMARKS
ST LOUIS INTL  SUNNY     36  25  64 W12       29.90S WCI  28
SPIRIT OF STL  SUNNY     35  25  66 W9        29.91S WCI  28
ST CHARLES     SUNNY     33  27  78 W9        29.90R WCI  25

$$
MOZ072>076-082>087-097>100-106>115-241600-
...SOUTH CENTRAL AND SOUTHEAST MISSOURI...

CITY           SKY/WX    TMP DP  RH WIND       PRES   REMARKS
CAPE GIRARDEAU SUNNY     33  28  81 W9        29.94R WCI  25
FARMINGTON     SUNNY     37  23  56 MISG      29.93S
POPLAR BLUFF   SUNNY     32  25  75 SW8       29.96R WCI  25
WEST PLAINS    SUNNY     35  24  64 W9        29.96R WCI  28

$$



USA.gov is the U.S. government's official web portal to all federal, state and local government web resources and services.